This demonstration page uses our WeatherBlox Daily Observations layout. Learn more.

Left ArrowRight Arrow

31.84235, -102.49876

Hourly Observations for May 20, 2021

Temp ( °F °C ) Dew Point ( °F °C ) Humidity (%) Winds ( mph kmh ) Pressure ( in mb ) Visibility ( mi km ) Precip ( " mm )
12:53 am 00:53 Clear 63 17.2 56 13.3 78 78 S 8 13 29.80 1009 10 16 0.00 0.00
1:53 am 01:53 Clear 62 16.7 57 13.9 84 84 S 7 11 29.79 1009 10 16 0.00 0.00
2:53 am 02:53 Clear 61 16.1 57 13.9 87 87 SSE 6 9 29.77 1008 10 16 0.00 0.00
3:53 am 03:53 Clear 60 15.6 58 14.4 93 93 SE 6 9 29.77 1008 8 13 0.00 0.00
4:53 am 04:53 Clear with Mist and Fog 60 15.6 58 14.4 93 93 SE 7 11 29.78 1008 6 10 0.00 0.00
5:53 am 05:53 Clear with Mist and Fog 60 15.6 58 14.4 93 93 ESE 7 11 29.78 1008 5 8 0.00 0.00
6:53 am 06:53 Sunny with Mist and Fog 58 14.4 56 13.3 93 93 ESE 9 15 29.79 1009 3 5 0.00 0.00
7:44 am 07:44 Partly Cloudy with Mist and Fog 58 14.4 55 12.8 90 90 ESE 10 17 29.86 1011 6 10 0.00 0.00
7:53 am 07:53 Mostly Cloudy with Mist and Fog 58 14.4 56 13.3 93 93 ESE 9 15 29.82 1010 6 10 0.00 0.00
8:01 am 08:01 Mostly Cloudy with Mist and Fog 59 15 56 13.3 90 90 E 8 13 29.86 1011 6 10 0.00 0.00
8:14 am 08:14 Partly Cloudy with Mist and Fog 60 15.6 57 13.9 90 90 ESE 12 19 29.86 1011 6 10 0.00 0.00
8:53 am 08:53 Mostly Sunny 62 16.7 57 13.9 84 84 ESE 12 19 29.83 1010 10 16 0.00 0.00
9:53 am 09:53 Sunny 67 19.4 57 13.9 71 71 SSE 12 19 29.84 1011 10 16 0.00 0.00
10:53 am 10:53 Sunny 71 21.7 57 13.9 61 61 SSE 7 11 29.85 1011 10 16 0.00 0.00
11:53 am 11:53 Sunny 75 23.9 56 13.3 52 52 S 7 11 29.84 1011 10 16 0.00 0.00
12:53 pm 12:53 Sunny 79 26.1 56 13.3 45 45 S 10 17 29.83 1010 10 16 0.00 0.00
1:53 pm 13:53 Sunny 83 28.3 55 12.8 38 38 SE 15 24 29.80 1009 10 16 0.00 0.00
2:53 pm 14:53 Sunny 85 29.4 53 11.7 33 33 S 17 28 29.78 1009 10 16 0.00 0.00
3:53 pm 15:53 Sunny 87 30.6 50 10 28 28 SSE 16 26 29.76 1008 10 16 0.00 0.00
4:53 pm 16:53 Sunny 88 31.1 48 8.9 25 25 SSE 17 28 29.75 1007 10 16 0.00 0.00
5:53 pm 17:53 Sunny 88 31.1 47 8.3 24 24 S 17 28 29.74 1007 10 16 0.00 0.00
6:53 pm 18:53 Sunny 87 30.6 46 7.8 24 24 SSE 17 28 29.74 1007 10 16 0.00 0.00
7:53 pm 19:53 Sunny 85 29.4 48 8.9 28 28 SSE 15 24 29.75 1007 10 16 0.00 0.00
8:53 pm 20:53 Clear 81 27.2 50 10 34 34 SSE 16 26 29.76 1008 10 16 0.00 0.00
9:53 pm 21:53 Clear 78 25.6 50 10 37 37 SSE 15 24 29.77 1008 10 16 0.00 0.00
10:53 pm 22:53 Clear 76 24.4 52 11.1 43 43 SSE 15 24 29.79 1009 10 16 0.00 0.00
11:53 pm 23:53 Clear 74 23.3 53 11.7 48 48 SSE 15 24 29.80 1009 10 16 0.00 0.00

Powered by AerisWeather